Location: Brachstadt
(48.6975°N, 10.6755°E)
Time: 21:44:10
(UTC+00:00)

Cosmos 2227 Rocket - Pass Details

Date: 18 September 2020
Orbit: 840 x 844 km, 71.0° (Epoch: 30 October)

Event Time Altitude Azimuth Distance (km) Brightness Sun altitude
Rises 23:35:13 0° 336° (NNW) 3,406 6.0 -39.6°
Reaches altitude 10° 23:38:25 10° 354° (N) 2,468 5.3 -39.6°
Maximum altitude 23:42:25 19° 39° (NE) 1,890 4.4 -39.5°
Enters shadow 23:43:11 19° 49° (NE) 1,913 4.4 -39.4°
